Location: Allaines
(49.9632°N, 2.9458°E)
Time: 23:31:37
(UTC+00:00)

Cosmos 1408 - Pass Details

Date: 09 April 2020
Orbit: 470 x 494 km, 82.6° (Epoch: 27 May)

Event Time Altitude Azimuth Distance (km) Brightness Sun altitude
Rises 20:41:04 0° 353° (N) 2,564 7.0 -19.1°
Reaches altitude 10° 20:43:12 10° 358° (N) 1,683 5.9 -19.3°
Maximum altitude 20:46:50 55° 78° (ENE) 595 2.7 -19.8°
Enters shadow 20:46:51 55° 79° (E) 595 2.7 -19.8°
